Location: Newark
(49.8348°N, 24.0280°E)
Time: 06:21:42
(UTC+00:00)

S-56A Canister/Altair - All Passes

Search period start: 26 January 2020 00:00
Search period end: 05 February 2020 00:00
Orbit: 634 x 2498 km, 38.9° (Epoch: 25 January)

Date Brightness Start Highest point End Pass type
(mag) Time Alt. Az. Time Alt. Az. Time Alt. Az.
26 Jan - 18:12:11 10° SSW 18:16:45 19° SSE 18:20:28 10° ESE visible
26 Jan - 20:15:20 10° SW 20:19:41 24° S 20:23:23 10° SE visible
26 Jan - 22:19:45 10° SW 22:22:18 15° SSW 22:24:47 10° SSE night (unlit)
27 Jan - 17:39:16 10° SSW 17:44:09 19° SSE 17:48:04 10° ESE visible
27 Jan - 19:42:25 10° SW 19:47:11 25° S 19:51:05 10° SE visible
27 Jan - 21:46:49 10° WSW 21:49:51 16° SSW 21:52:41 10° SSE night (unlit)
28 Jan - 17:06:19 10° SSW 17:11:32 19° SSE 17:15:40 10° ESE visible
28 Jan - 19:09:25 10° SW 19:14:40 26° S 19:18:48 10° ESE visible
28 Jan - 21:13:51 10° WSW 21:17:23 19° SSW 21:20:33 10° SSE night (unlit)
29 Jan - 16:33:19 10° SSW 16:38:51 19° SSE 16:43:14 10° ESE visible
29 Jan - 18:36:21 10° SW 18:42:06 28° S 18:46:30 10° ESE visible
29 Jan - 20:40:50 10° WSW 20:44:56 21° SSW 20:48:24 10° SSE visible
30 Jan - 16:00:19 10° SSW 16:06:08 19° SSE 16:10:46 10° ESE visible
30 Jan - 18:03:12 10° SW 18:09:31 29° S 18:14:13 10° ESE visible
30 Jan - 20:07:46 10° WSW 20:12:26 24° SSW 20:16:15 10° SE visible
31 Jan - 15:27:18 10° SSW 15:33:24 19° SSE 15:38:15 10° ESE daylight
31 Jan - 17:30:01 10° SW 17:36:53 29° S 17:41:55 10° ESE visible
31 Jan - 19:34:38 10° WSW 19:39:56 26° SSW 19:44:06 10° SE visible
31 Jan - 21:41:26 10° SW 21:42:18 10° SSW 21:43:09 10° SSW night (unlit)
01 Feb - 14:54:18 10° SSW 15:00:36 18° SSE 15:05:40 10° ESE daylight
01 Feb - 16:56:45 10° SW 17:04:12 30° S 17:09:35 10° ESE visible
01 Feb - 19:01:27 10° WSW 19:07:24 29° SSW 19:11:54 10° SE visible
01 Feb - 21:07:25 10° WSW 21:09:52 13° SSW 21:12:04 10° S night (unlit)
02 Feb - 14:21:21 10° S 14:27:47 18° SSE 14:33:00 10° ESE daylight
02 Feb - 16:23:28 10° SW 16:31:29 31° S 16:37:14 10° ESE visible
02 Feb - 18:28:10 10° WSW 18:34:50 31° S 18:39:42 10° SE visible
02 Feb - 20:33:56 10° WSW 20:37:24 16° SSW 20:40:24 10° S visible
03 Feb - 13:48:26 10° S 13:54:54 17° SSE 14:00:14 10° ESE daylight
03 Feb - 15:50:07 10° SW 15:58:42 31° SSE 16:04:51 10° ESE visible
03 Feb - 17:54:50 10° WSW 18:02:12 34° S 18:07:28 10° ESE visible
03 Feb - 20:00:31 10° WSW 20:04:57 19° SSW 20:08:34 10° SSE visible
04 Feb - 13:15:37 10° S 13:22:00 16° SSE 13:27:21 10° ESE daylight
04 Feb - 15:16:47 10° SW 15:25:52 31° SSE 15:32:25 10° ESE daylight
04 Feb - 17:21:27 10° WSW 17:29:32 36° S 17:35:12 10° ESE visible
04 Feb - 19:27:08 10° WSW 19:32:26 22° SSW 19:36:37 10° SSE visible
